This is the latest recevied weather packets stored in our database for station/object CE7LGA-10. If no packets are shown the sender has not sent any weather packets the latest 10 day(s).
| Time | Temp. | Humidity | Pressure | Rain* | Wind** | Luminosity | Snow |
|---|---|---|---|---|---|---|---|
| 1787432903 | 14.44° C | 64% | 1008.2 hPa | - | - | - | - |
| 1787432003 | 15° C | 64% | 1008 hPa | - | - | - | - |
| 1787431103 | 15° C | 64% | 1007.8 hPa | - | - | - | - |
| 1787430203 | 15° C | 64% | 1007.9 hPa | - | - | - | - |
| 1787429303 | 15° C | 64% | 1007.9 hPa | - | - | - | - |
| 1787428403 | 15° C | 64% | 1007.8 hPa | - | - | - | - |
| 1787427503 | 15° C | 63% | 1007.6 hPa | - | - | - | - |
| 1787426603 | 15° C | 63% | 1007.4 hPa | - | - | - | - |
| 1787425703 | 15.56° C | 64% | 1007.6 hPa | - | - | - | - |
| 1787424803 | 15.56° C | 64% | 1007.7 hPa | - | - | - | - |
| 1787423903 | 15.56° C | 65% | 1007.9 hPa | - | - | - | - |
| 1787423002 | 15.56° C | 62% | 1008.1 hPa | - | - | - | - |
| 1787422102 | 15.56° C | 62% | 1008.3 hPa | - | - | - | - |
| 1787421202 | 15.56° C | 63% | 1008.7 hPa | - | - | - | - |
| 1787420302 | 15.56° C | 64% | 1008.8 hPa | - | - | - | - |
| 1787419402 | 15° C | 66% | 1009.2 hPa | - | - | - | - |
| 1787418502 | 15° C | 66% | 1009.5 hPa | - | - | - | - |
| 1787417601 | 15° C | 66% | 1009.7 hPa | - | - | - | - |
| 1787416704 | 14.44° C | 64% | 1009.9 hPa | - | - | - | - |
| 1787415803 | 14.44° C | 64% | 1010.1 hPa | - | - | - | - |
| 1787414903 | 14.44° C | 63% | 1010.2 hPa | - | - | - | - |
| 1787414003 | 13.89° C | 63% | 1010.2 hPa | - | - | - | - |
| 1787413103 | 13.89° C | 63% | 1010 hPa | - | - | - | - |
| 1787412203 | 13.33° C | 63% | 1010.1 hPa | - | - | - | - |
| 1787411303 | 12.78° C | 64% | 1010.1 hPa | - | - | - | - |
* Rain since midnight (hover to see other rain measurements)
** Current wind speed in m/s (hover to see current wind gust speed)